Location: Bremen
(53.0793°N, 8.8017°E)
Time: 00:06:55
(UTC+01:00)

Transit 2A - Pass Details

Date: 28 November 2022
Orbit: 593 x 963 km, 66.7° (Epoch: 05 February)

Event Time Altitude Azimuth Distance (km) Brightness Sun altitude
Rises 18:44:22 0° 316° (NW) 3,160 9.7 -21.6°
Reaches altitude 10° 18:46:46 10° 309° (NW) 2,291 9.0 -22.0°
Maximum altitude 18:51:37 39° 242° (WSW) 1,207 7.5 -22.7°
Drops below altitude 10° 18:56:56 10° 175° (S) 2,508 8.7 -23.5°
Sets 18:59:40 0° 168° (SSE) 3,495 9.3 -23.9°
